Vorticity
5 4 4 -20 5 9 9 21 10 1 6 6 14 -1 10 -0 -4 6 11 15 9 -1
3 5 3 2 1 7 8 1 4 5 4 17 -2 -1 -8 20 15 3 1 9 11 -6
4 2 1 2 4 11 4 8 8 36 23 16 -1 6 -3 11 4 -31 -4 28 -9 -12
4 1 -1 -1 4 3 4 6 20 -7 19 -3 -6 14 15 30 4 -12 3 5 6 -18
1 1 5 3 5 4 7 10 12 15 -16 28 -22 49 4 -12 -27 -6 17 -0 -3 13
2 3 4 8 5 6 8 8 8 22 -18 8 -18 12 9 1 -9 13 14 17 10 13
10 12 7 6 8 9 10 11 4 7 8 9 11 10 12 12 10 11 11 12 13 2
10 5 10 9 7 9 7 9 8 9 7 7 6 7 7 7 8 8 9 10 9 8
10 8 8 7 10 10 10 8 6 5 5 5 5 8 7 7 9 10 10 8 8 3
9 8 11 11 10 7 6 5 5 4 5 6 6 6 8 10 10 9 8 8 3 3
7 10 9 8 6 5 5 5 4 5 6 7 8 9 10 10 8 8 9 5 3 3
8 8 6 5 5 5 5 5 5 6 7 8 8 10 10 8 9 10 4 4 3 5
7 5 6 6 6 5 5 6 6 7 9 10 9 8 7 13 10 5 2 2 6 12
6 6 5 4 2 5 7 7 6 10 10 9 8 8 13 6 4 5 3 6 11 8
Height
5745 5745 5744 5740 5742 5741 5739 5737 5734 5731 5728 5725 5722 5721 5718 5714 5709 5702 5697 5692 5688 5682
5740 5740 5738 5736 5736 5734 5731 5728 5726 5723 5719 5715 5713 5712 5707 5701 5697 5692 5688 5683 5676 5670
5734 5732 5732 5731 5729 5726 5724 5720 5716 5711 5709 5701 5706 5701 5696 5692 5688 5684 5678 5672 5665 5657
5728 5727 5725 5723 5720 5718 5715 5712 5708 5704 5701 5700 5695 5690 5686 5682 5678 5672 5667 5660 5653 5644
5721 5719 5716 5713 5711 5708 5705 5701 5699 5695 5693 5689 5686 5680 5675 5671 5664 5660 5653 5646 5638 5629
5712 5710 5708 5705 5702 5699 5697 5693 5690 5686 5683 5682 5676 5674 5669 5662 5655 5648 5639 5632 5624 5616
5704 5701 5699 5696 5692 5690 5687 5683 5680 5677 5674 5671 5666 5661 5655 5649 5642 5634 5626 5618 5610 5601
5694 5692 5690 5687 5684 5680 5677 5673 5670 5667 5662 5658 5652 5646 5640 5633 5625 5617 5610 5602 5594 5586
5685 5683 5680 5677 5674 5671 5668 5663 5659 5654 5649 5644 5638 5632 5625 5618 5611 5603 5595 5587 5578 5569
5676 5674 5671 5668 5664 5661 5656 5652 5647 5642 5636 5630 5624 5617 5610 5603 5596 5589 5581 5572 5562 5553
5666 5663 5660 5657 5653 5649 5645 5639 5633 5627 5621 5614 5608 5603 5596 5588 5580 5572 5564 5555 5545 5535
5656 5653 5650 5646 5642 5637 5632 5627 5621 5614 5607 5600 5592 5589 5579 5570 5564 5556 5547 5539 5528 5516
5645 5642 5639 5635 5630 5625 5619 5612 5605 5598 5591 5583 5574 5572 5564 5553 5545 5540 5532 5522 5511 5499
5635 5631 5627 5622 5617 5611 5605 5598 5592 5583 5575 5568 5560 5552 5547 5537 5526 5519 5512 5501 5491 5478